Flag for Brazil Weather past 2 weeks in Porto Velho, Rondônia, Brazil

Now
90 °F

Passing clouds.


Feels Like: 95 °F
Forecast: 74 / 94 °F
Wind: 7 mph from Northwest

Location: Porto Velho Aeroporto

Current Time: Sep 2, 2014 at 12:03:59 PM

Latest Report: Sep 2, 2014 at 11:00 AM


Visibility: N/A

Pressure: 29.92 "Hg

Humidity: 52%

Dew point: 70 °F

Location of Porto VelhoLocation

Historic Weather in Porto Velho — Graph

°F

Porto Velho temperature yesterday

Maximum temperature yesterday: 95 °F (at 3:00 PM)
Minimum temperature yesterday: 73 °F (at 4:00 AM)
Average temperature yesterday: 81 °F

Past Weeks' High & Low Weather Summary

 TemperatureHumidityPressure
High97 °F (Aug 19, 4:00 PM)94% (Aug 19, 3:00 AM)30.01 "Hg (Aug 19, 3:00 AM)
Low68 °F (Aug 20, 5:00 AM)17% (Aug 20, 1:00 PM)29.71 "Hg (Aug 26, 4:00 PM)
Average81 °F67%29.87 "Hg
* Reported Aug 18 10:00 AM — Sep 2 10:00 AM, Porto Velho, Weather by CustomWeather, © 2014

Note: Actual official high and low records may vary slightly from our data, if they occured in-between our weather recording intervals... More about our weather records

Advertising

Porto Velho weather history for previous 24 hours

 ConditionsComfort  
Time TempWeatherWind HumidityBarometerVisibility
10:00 AM
Sep 2
88 °FSunny.5 mph59%29.92 "Hg10 mi
9:00 AM82 °FSunny.3 mph70%29.89 "Hg10 mi
8:00 AM79 °FSunny.2 mph74%29.89 "Hg10 mi
7:00 AM73 °FSunny.1 mph89%29.86 "Hg10 mi
6:00 AM72 °FClear.No wind94%29.86 "Hg5 mi
5:00 AM73 °FClear.No wind89%29.83 "Hg5 mi
4:00 AM73 °FClear.No wind89%29.83 "Hg10 mi
3:00 AM73 °FClear.No wind89%29.83 "Hg10 mi
2:00 AM73 °FClear.No wind89%29.83 "Hg10 mi
1:00 AM75 °FClear.2 mph83%29.83 "Hg10 mi
12:00 AM75 °FClear.No wind83%29.86 "Hg5 mi
11:00 PM
Sep 1
77 °FClear.1 mph83%29.86 "Hg5 mi
10:00 PM77 °FClear.2 mph83%29.86 "Hg5 mi
9:00 PM77 °FClear.1 mph83%29.83 "Hg10 mi
8:00 PM79 °FPassing clouds.1 mph79%29.83 "HgN/A
7:00 PM79 °FPassing clouds.No wind74%29.83 "HgN/A
6:00 PM82 °FThunderstorms. Scattered clouds.3 mph66%29.83 "HgN/A
5:00 PM90 °FScattered clouds.7 mph52%29.80 "HgN/A
4:00 PM90 °FScattered clouds.3 mph55%29.80 "HgN/A
3:00 PM95 °FScattered clouds.9 mph41%29.80 "HgN/A
2:00 PM90 °FScattered clouds.5 mph52%29.86 "HgN/A
1:00 PM91 °FScattered clouds.3 mph49%29.89 "HgN/A
12:00 PM90 °FScattered clouds.6 mph55%29.92 "HgN/A
Weather by CustomWeather, © 2014

See weather overviewHow to use our weather pages